Location: Unspecified
(0.0000°N, 0.0000°E)
Time: 21:59:57
(UTC+00:00)

Hubble Space Telescope - Pass Details

Date: 28 May 2017
Orbit: 537 x 541 km, 28.5° (Epoch: 17 October)

Event Time Altitude Azimuth Distance (km) Brightness Sun altitude
Exits shadow 04:28:51 25° 319° (NW) 1,096 2.1 -20.5°
Maximum altitude 04:31:02 58° 30° (NNE) 625 1.3 -20.0°
Drops below altitude 10° 04:35:07 10° 110° (ESE) 1,790 4.1 -19.1°
Sets 04:37:25 0° 114° (ESE) 2,682 5.0 -18.5°
